Location: Jackson Park
(37.2862°N, 79.9123°W)
Time: 14:53:58
(UTC+00:00)

S-56A Canister/Altair - Pass Details

Date: 10 May 2026
Orbit: 633 x 2484 km, 38.9° (Epoch: 6 June)

Event Time Altitude Azimuth Distance (km) Brightness Sun altitude
Rises 11:27:26 0° 266° (W) 4,517 10.8 12.8°
Reaches altitude 10° 11:33:56 10° 233° (SW) 4,052 10.7 14.1°
Maximum altitude 11:36:13 11° 221° (SW) 4,147 10.9 14.5°
Drops below altitude 10° 11:38:39 10° 209° (SSW) 4,377 11.1 15.0°
Sets 11:47:13 0° 178° (S) 5,837 11.9 16.7°
